User: anonymous   Login
Location: Unspecified
(0.0000°N, 0.0000°E)
Time: 08:42:24
(UTC+00:00)
Language:

COSMOS 2488 - Orbit

View from above orbital plane
View from above orbital plane
View from above satellite
View from above satellite

Ground track
Ground track

The orbit data is extracted from the following two-line orbital elements,

1 39483U 13076A   17293.66816448  .00000010  00000-0  00000+0 0  9999
2 39483  82.4873 338.9687 0020833 143.7220 216.5276 12.42866674173343
Epoch (UTC): 20 October 2017 16:02:09
Eccentricity: 0.0020833
inclination: 82.4873°
perigee height: 1478 km
apogee height: 1511 km
right ascension of ascending node: 338.9687°
argument of perigee: 143.7220°
revolutions per day: 12.42866674
mean anomaly at epoch: 216.5276°
orbit number at epoch: 17334

The dashed part of the orbit path shows where the satellite is in the earth's shadow,  

DLR